[[{"header":{"parameterUnit":"m.s-1","parameterCategory":1,"la1":30.2992,"la2":30.254,"lo1":-89.0895,"lo2":-89.0443,"dy":0.0025,"dx":0.0025,"nx":19,"ny":19,"refTime":"2026-05-12T21:00:00:Z","depth":0,"parameterNumber":2,"parameterNumberName":"U-component_of_WINDS"},"data":[0,0,0,-0.8421,-0.842,-0.8384,-0.8384,-0.8336,-0.8335,0,0,0,0,0,0,0,0,0,0,0,-0.8432,-0.8431,-0.8421,-0.842,-0.8384,-0.8384,-0.8336,-0.8335,0,0,0,0,0,0,0,0,0,0,0,-0.8432,-0.8431,-0.8431,-0.842,-0.8384,-0.8384,-0.8336,-0.8364,0,0,0,0,0,0,0,0,0,0,-0.8399,-0.8409,-0.8431,-0.8431,-0.842,-0.8384,-0.8384,-0.8365,-0.8362,-0.8352,0,-0.8343,0,-0.8338,-0.8332,-0.8332,0,0,0,-0.842,-0.8411,-0.8402,-0.8431,-0.842,-0.8384,-0.84,-0.8363,-0.836,-0.8348,-0.8342,-0.8341,-0.8338,-0.8332,-0.8331,-0.8274,-0.8273,0,0,-0.8422,-0.8425,-0.8404,-0.84,-0.8406,-0.8401,-0.8399,-0.8361,-0.8355,-0.8342,-0.834,-0.8337,-0.8331,-0.8331,-0.8274,-0.8274,0,0,0,-0.8428,-0.8426,-0.8418,-0.8402,-0.8395,-0.84,-0.8398,-0.8357,-0.8354,-0.8339,-0.8336,-0.8331,-0.833,-0.8274,-0.8274,-0.8263,0,0,0,-0.8429,-0.8429,-0.8418,-0.8419,-0.8396,-0.8376,-0.8394,-0.8357,-0.8352,-0.8337,-0.8331,-0.833,-0.8274,-0.8274,-0.8264,-0.8257,0,0,0,-0.8434,-0.843,-0.8425,-0.842,-0.8404,-0.8376,-0.8371,-0.8356,-0.8351,-0.8332,-0.833,-0.8275,-0.8274,-0.8264,-0.8258,-0.8242,0,0,0,-0.844,-0.8415,-0.8425,-0.8396,-0.8404,-0.837,-0.8371,-0.8345,-0.8328,-0.8331,-0.8274,-0.8274,-0.8265,-0.8259,-0.8243,-0.8229,-0.8224,0,0,-0.841,-0.8411,-0.8394,-0.8402,-0.8366,-0.8375,-0.8338,-0.8319,-0.8315,-0.8288,-0.8286,-0.8263,-0.8258,-0.8242,-0.8192,-0.8188,0,0,0,-0.8386,-0.8374,-0.8364,-0.8347,-0.8333,-0.832,-0.8307,-0.83,-0.8277,-0.8302,-0.8253,-0.825,-0.8241,-0.8234,-0.823,-0.8222,-0.8271,-0.8271,-0.8271,-0.8347,-0.8343,-0.8315,-0.8307,-0.8291,-0.8278,-0.8264,-0.8253,-0.8254,-0.8242,-0.8234,-0.8204,-0.8196,-0.8193,-0.8185,-0.8226,-0.8226,-0.8226,-0.8226,-0.8302,-0.8284,-0.8287,-0.826,-0.8256,-0.8233,-0.822,-0.8221,-0.8199,-0.821,-0.8201,-0.8213,-0.8189,-0.8181,-0.8225,-0.8226,-0.8226,-0.8226,-0.8226,-0.8276,-0.8267,-0.8259,-0.8236,-0.8218,-0.821,-0.8189,-0.8186,-0.8184,-0.8175,-0.8166,-0.8166,-0.8166,-0.8171,-0.8171,-0.8171,-0.8171,-0.8171,-0.8171,-0.8252,-0.8244,-0.8226,-0.8209,-0.8199,-0.8184,-0.8171,-0.816,-0.8147,-0.8147,-0.8147,-0.8148,-0.8187,-0.8197,-0.8169,-0.8169,-0.817,-0.817,-0.817,-0.8207,-0.8217,-0.8191,-0.818,-0.816,-0.8142,-0.8139,-0.8117,-0.8108,-0.8097,-0.8101,-0.813,-0.8131,-0.8134,-0.8142,-0.8102,-0.8102,-0.8102,-0.8102,-0.8185,-0.8186,-0.8158,-0.8141,-0.8124,-0.8119,-0.8089,-0.8078,-0.8069,-0.8063,-0.8068,-0.8079,-0.8082,-0.8081,-0.8085,-0.8093,-0.8041,-0.8041,-0.8041,-0.8158,-0.8157,-0.8131,-0.8123,-0.8107,-0.8094,-0.8065,-0.8045,-0.8036,-0.8038,-0.8058,-0.8061,-0.8077,-0.8083,-0.8085,-0.8091,-0.8105,0,0]},{"header":{"parameterUnit":"m.s-1","parameterCategory":1,"la1":30.2992,"la2":30.254,"lo1":-89.0895,"lo2":-89.0443,"dy":0.0025,"dx":0.0025,"nx":19,"ny":19,"refTime":"2026-05-12T21:00:00:Z","depth":0,"parameterNumber":3,"parameterNumberName":"V-component_of_WINDS"},"data":[0,0,0,-2.5182,-2.5183,-2.5195,-2.5195,-2.5216,-2.5217,0,0,0,0,0,0,0,0,0,0,0,-2.5183,-2.5183,-2.5182,-2.5183,-2.5195,-2.5195,-2.5216,-2.5217,0,0,0,0,0,0,0,0,0,0,0,-2.5183,-2.5183,-2.5183,-2.5183,-2.5195,-2.5195,-2.5216,-2.5205,0,0,0,0,0,0,0,0,0,0,-2.5192,-2.5196,-2.5183,-2.5183,-2.5183,-2.5195,-2.5195,-2.5204,-2.5206,-2.5214,0,-2.5222,0,-2.522,-2.5219,-2.5219,0,0,0,-2.5179,-2.5195,-2.5195,-2.5184,-2.5183,-2.5195,-2.5188,-2.5205,-2.5206,-2.5216,-2.5223,-2.5223,-2.5221,-2.5219,-2.5219,-2.5282,-2.5283,0,0,-2.5179,-2.5187,-2.5194,-2.5196,-2.5195,-2.5188,-2.5189,-2.5206,-2.5214,-2.5223,-2.5224,-2.5221,-2.5219,-2.5219,-2.5282,-2.5282,0,0,0,-2.5179,-2.5186,-2.5186,-2.5196,-2.5198,-2.5188,-2.5189,-2.5213,-2.5212,-2.5224,-2.5221,-2.5219,-2.5219,-2.5281,-2.5282,-2.5316,0,0,0,-2.5179,-2.5187,-2.5186,-2.5191,-2.5197,-2.5205,-2.5196,-2.5211,-2.5212,-2.5221,-2.5219,-2.522,-2.5281,-2.5282,-2.5314,-2.5331,0,0,0,-2.5181,-2.5187,-2.519,-2.5191,-2.5197,-2.5205,-2.5205,-2.5211,-2.5211,-2.5219,-2.522,-2.528,-2.5282,-2.5312,-2.5328,-2.5354,0,0,0,-2.5185,-2.5216,-2.5191,-2.5225,-2.5197,-2.5225,-2.5205,-2.5225,-2.5235,-2.5219,-2.5281,-2.5282,-2.5312,-2.5326,-2.5352,-2.538,-2.5391,0,0,-2.5229,-2.5222,-2.5242,-2.5219,-2.5255,-2.5223,-2.5263,-2.5263,-2.5255,-2.5274,-2.5275,-2.5315,-2.5328,-2.5354,-2.5446,-2.5455,0,0,0,-2.5259,-2.5273,-2.5281,-2.5293,-2.5296,-2.5301,-2.5294,-2.5295,-2.5311,-2.5267,-2.5329,-2.5336,-2.5351,-2.5364,-2.5372,-2.5386,-2.5287,-2.5287,-2.5287,-2.5333,-2.5324,-2.5358,-2.5352,-2.5363,-2.5359,-2.5368,-2.5369,-2.5352,-2.5367,-2.5374,-2.5431,-2.5447,-2.5453,-2.5468,-2.5385,-2.5385,-2.5385,-2.5385,-2.54,-2.5422,-2.5405,-2.5432,-2.5422,-2.5444,-2.5442,-2.5431,-2.5451,-2.5424,-2.5437,-2.5412,-2.5463,-2.5476,-2.5387,-2.5387,-2.5387,-2.5386,-2.5386,-2.5451,-2.5461,-2.5463,-2.5483,-2.5499,-2.549,-2.5512,-2.5501,-2.549,-2.5502,-2.5511,-2.5511,-2.5512,-2.5507,-2.5507,-2.5507,-2.5507,-2.5507,-2.5508,-2.5504,-2.5506,-2.5527,-2.5536,-2.5545,-2.5555,-2.5553,-2.5561,-2.5568,-2.5558,-2.5558,-2.5545,-2.5469,-2.5453,-2.5511,-2.551,-2.551,-2.5509,-2.5509,-2.5582,-2.5564,-2.5596,-2.5606,-2.5618,-2.5638,-2.5624,-2.5643,-2.5647,-2.566,-2.5643,-2.5588,-2.5579,-2.5573,-2.556,-2.5642,-2.5642,-2.5642,-2.5642,-2.5628,-2.5623,-2.5657,-2.5674,-2.5688,-2.5681,-2.572,-2.5721,-2.5717,-2.572,-2.5706,-2.5686,-2.568,-2.5675,-2.5667,-2.5655,-2.5759,-2.5759,-2.576,-2.5677,-2.5674,-2.571,-2.5709,-2.5719,-2.5729,-2.5767,-2.5788,-2.5779,-2.5764,-2.5724,-2.5719,-2.5687,-2.5676,-2.5662,-2.5649,-2.5626,0,0]}]]